Weather History for Algona, IA

Change the Weather History Date:

Wednesday, October 24, 2012

  Actual Average Record
Temperature  
Mean Temperature 54 °F -  
Max Temperature 59 °F 55 °F 73 °F (2004)
Min Temperature 46 °F 36 °F 21 °F (2006)
Degree Days  
Heating Degree Days 12    
Growing Degree Days 4 (Base 50)    
Moisture  
Dew Point 54 °F    
Average Humidity 97    
Maximum Humidity 100    
Minimum Humidity 88    
Precipitation  
Precipitation 0.24 in - - ()
Sea Level Pressure  
Sea Level Pressure 29.77 in    
Wind  
Wind Speed 11 mph (NNE)    
Max Wind Speed 21 mph    
Max Gust Speed 29 mph    
Visibility 3 miles    
Events Rain    
Averages and records for this station are not official NWS values.
T = Trace of Precipitation, MM = Missing Value Source: NWS Daily Summary

Daily Weather History Graph

Daily Weather History Graph

Search for Another Location

Airport:

Trip Planner

Search our weather history database for the weather conditions in past years. The results will help you decide how hot, cold, wet, or windy it might be!

Date:

Astronomy

Oct. 24, 2012 Rise Set
Actual Time 7:42 AM CDT 6:19 PM CDT
Civil Twilight 7:13 AM CDT 6:48 PM CDT
Nautical Twilight 6:39 AM CDT 7:21 PM CDT
Astronomical Twilight 6:07 AM CDT 7:54 PM CDT
Moon 3:42 PM CDT (10/24) 2:30 AM CDT (10/24)
Length of Visible Light 11h 35m
Length of Day
10h 37m
Waxing Gibbous, 76% of the Moon is Illuminated
Oct 24
Waxing Gibbous
Oct 29
Full
Nov 6
Last Quarter
Nov 13
New
Nov 20
First Quarter

Hourly Weather History & Observations

Time (CDT) Temp. Windchill Dew Point Humidity Pressure Visibility Wind Dir Wind Speed Gust Speed Precip Events Conditions
12:15 AM 59.0 °F - 57.2 °F 94% 29.77 in 4.0 mi North 4.6 mph - N/A   Mostly Cloudy
12:35 AM 57.2 °F - 55.4 °F 94% 29.78 in 4.0 mi North 5.8 mph - N/A   Overcast
12:55 AM 57.2 °F - 57.2 °F 100% 29.78 in 4.0 mi North 5.8 mph - N/A   Overcast
1:15 AM 59.0 °F - 57.2 °F 94% 29.78 in 5.0 mi North 6.9 mph - N/A   Overcast
1:35 AM 59.0 °F - 57.2 °F 94% 29.78 in 4.0 mi NNE 9.2 mph - N/A   Overcast
1:55 AM 59.0 °F - 57.2 °F 94% 29.78 in 4.0 mi North 8.1 mph - N/A   Overcast
2:15 AM 59.0 °F - 57.2 °F 94% 29.78 in 4.0 mi NNE 11.5 mph - N/A   Overcast
2:35 AM 59.0 °F - 57.2 °F 94% 29.77 in 4.0 mi NNE 13.8 mph - N/A   Overcast
2:55 AM 59.0 °F - 57.2 °F 94% 29.78 in 4.0 mi NNE 11.5 mph - N/A   Overcast
3:15 AM 59.0 °F - 55.4 °F 88% 29.79 in 5.0 mi NNE 9.2 mph - N/A   Overcast
3:35 AM 59.0 °F - 57.2 °F 94% 29.80 in 5.0 mi NE 6.9 mph - N/A   Overcast
3:55 AM 59.0 °F - 57.2 °F 94% 29.79 in 4.0 mi North 8.1 mph - N/A   Overcast
4:15 AM 59.0 °F - 55.4 °F 88% 29.80 in 5.0 mi NNE 9.2 mph - N/A   Overcast
4:35 AM 59.0 °F - 55.4 °F 88% 29.81 in 4.0 mi North 9.2 mph 15.0 mph N/A   Overcast
4:55 AM 57.2 °F - 57.2 °F 100% 29.81 in 3.0 mi North 9.2 mph - N/A   Overcast
5:15 AM 57.2 °F - 57.2 °F 100% 29.81 in 2.5 mi North 9.2 mph 17.3 mph N/A   Overcast
5:35 AM 57.2 °F - 55.4 °F 94% 29.82 in 3.0 mi North 8.1 mph 13.8 mph N/A   Overcast
5:55 AM 57.2 °F - 55.4 °F 94% 29.82 in 3.0 mi NNE 11.5 mph - N/A   Overcast
6:15 AM 57.2 °F - 55.4 °F 94% 29.81 in 2.0 mi NNE 15.0 mph - N/A   Light Drizzle
6:35 AM 57.2 °F - 55.4 °F 94% 29.81 in 3.0 mi NNE 12.7 mph 18.4 mph N/A   Overcast
6:55 AM 57.2 °F - 55.4 °F 94% 29.80 in 3.0 mi NNE 12.7 mph 20.7 mph N/A   Overcast
7:15 AM 57.2 °F - 55.4 °F 94% 29.79 in 3.0 mi NE 12.7 mph - N/A   Overcast
7:35 AM 57.2 °F - 55.4 °F 94% 29.79 in 4.0 mi NE 13.8 mph - N/A   Overcast
7:55 AM 57.2 °F - 55.4 °F 94% 29.79 in 3.0 mi NE 11.5 mph - N/A   Overcast
8:15 AM 57.2 °F - 55.4 °F 94% 29.79 in 3.0 mi NE 12.7 mph - N/A   Overcast
8:35 AM 57.2 °F - 55.4 °F 94% 29.79 in 3.0 mi NE 13.8 mph 21.9 mph N/A   Overcast
8:55 AM 57.2 °F - 55.4 °F 94% 29.79 in 2.5 mi NE 15.0 mph - N/A   Overcast
9:15 AM 57.2 °F - 55.4 °F 94% 29.81 in 2.5 mi NE 9.2 mph - N/A   Overcast
9:35 AM 57.2 °F - 55.4 °F 94% 29.81 in 0.8 mi NNE 11.5 mph - N/A Rain Light Rain
9:55 AM 57.2 °F - 55.4 °F 94% 29.81 in 1.8 mi NNE 11.5 mph - N/A   Overcast
10:15 AM 57.2 °F - 55.4 °F 94% 29.81 in 2.0 mi NNE 10.4 mph - N/A   Overcast
10:35 AM 57.2 °F - 57.2 °F 100% 29.80 in 1.2 mi North 9.2 mph - N/A Rain Light Rain
10:55 AM 57.2 °F - 57.2 °F 100% 29.79 in 1.2 mi NNE 10.4 mph - 0.01 in   Light Drizzle
11:15 AM 57.2 °F - 57.2 °F 100% 29.78 in 1.0 mi NNE 13.8 mph - N/A   Overcast
11:35 AM 57.2 °F - 57.2 °F 100% 29.77 in 1.0 mi NNE 15.0 mph - N/A   Light Drizzle
11:55 AM 57.2 °F - 57.2 °F 100% 29.76 in 1.0 mi NNE 15.0 mph - N/A   Light Drizzle
12:15 PM 57.2 °F - 57.2 °F 100% 29.76 in 1.5 mi NNE 13.8 mph - N/A   Overcast
12:35 PM 57.2 °F - 57.2 °F 100% 29.75 in 1.2 mi NNE 15.0 mph - N/A   Overcast
12:55 PM 57.2 °F - 57.2 °F 100% 29.76 in 0.5 mi NNE 12.7 mph - N/A   Light Drizzle
1:15 PM 55.4 °F - 55.4 °F 100% 29.75 in 0.5 mi North 11.5 mph - N/A   Light Drizzle
1:35 PM 55.4 °F - 55.4 °F 100% 29.75 in 0.8 mi North 11.5 mph - N/A   Light Drizzle
1:55 PM 55.4 °F - 55.4 °F 100% 29.74 in 1.2 mi North 9.2 mph 16.1 mph 0.02 in   Light Drizzle
2:15 PM 55.4 °F - 55.4 °F 100% 29.74 in 1.8 mi North 12.7 mph - N/A   Overcast
2:35 PM 55.4 °F - 55.4 °F 100% 29.73 in 1.5 mi North 10.4 mph 18.4 mph N/A   Overcast
2:55 PM 55.4 °F - 53.6 °F 94% 29.73 in 1.8 mi North 13.8 mph - N/A   Overcast
3:15 PM 53.6 °F - 53.6 °F 100% 29.73 in 1.8 mi North 12.7 mph 19.6 mph N/A   Overcast
3:35 PM 53.6 °F - 53.6 °F 100% 29.73 in 1.8 mi North 15.0 mph - N/A   Overcast
4:15 PM 51.8 °F - 51.8 °F 100% 29.75 in 1.2 mi North 15.0 mph - N/A   Overcast
4:35 PM 51.8 °F - 51.8 °F 100% 29.74 in 1.8 mi North 16.1 mph 23.0 mph N/A   Overcast
4:55 PM 51.8 °F - 50.0 °F 94% 29.75 in 1.2 mi North 16.1 mph 23.0 mph N/A   Overcast
5:15 PM 50.0 °F - 50.0 °F 100% 29.75 in 1.5 mi North 15.0 mph - N/A   Overcast
5:35 PM 50.0 °F - 50.0 °F 100% 29.75 in 1.8 mi North 16.1 mph - N/A   Overcast
5:55 PM 50.0 °F - 50.0 °F 100% 29.76 in 1.8 mi North 13.8 mph - N/A   Overcast
6:15 PM 50.0 °F - 50.0 °F 100% 29.75 in 2.5 mi North 13.8 mph 21.9 mph N/A   Overcast
6:35 PM 50.0 °F - 50.0 °F 100% 29.75 in 3.0 mi North 13.8 mph 21.9 mph N/A   Overcast
6:55 PM 50.0 °F - 50.0 °F 100% 29.75 in 3.0 mi North 13.8 mph 20.7 mph N/A   Overcast
7:15 PM 50.0 °F - 50.0 °F 100% 29.76 in 3.0 mi North 12.7 mph 19.6 mph N/A   Overcast
7:35 PM 50.0 °F - 50.0 °F 100% 29.76 in 4.0 mi North 11.5 mph 17.3 mph N/A   Overcast
7:55 PM 50.0 °F - 48.2 °F 94% 29.76 in 2.5 mi North 12.7 mph 19.6 mph N/A   Overcast
8:15 PM 50.0 °F - 48.2 °F 94% 29.76 in 2.5 mi North 13.8 mph 19.6 mph N/A   Overcast
8:35 PM 50.0 °F - 48.2 °F 94% 29.75 in 2.5 mi NNE 13.8 mph 20.7 mph N/A   Light Drizzle
8:55 PM 50.0 °F - 48.2 °F 94% 29.74 in 2.0 mi NNE 16.1 mph - N/A   Overcast
9:15 PM 50.0 °F - 50.0 °F 100% 29.75 in 3.0 mi North 13.8 mph - N/A   Overcast
9:35 PM 50.0 °F - 48.2 °F 94% 29.74 in 3.0 mi North 12.7 mph 23.0 mph N/A   Overcast
9:55 PM 50.0 °F - 48.2 °F 94% 29.74 in 2.0 mi North 13.8 mph 20.7 mph N/A   Overcast
10:15 PM 48.2 °F - 48.2 °F 100% 29.75 in 1.8 mi North 15.0 mph 20.7 mph N/A Rain Light Rain
10:35 PM 48.2 °F - 48.2 °F 100% 29.75 in 5.0 mi North 16.1 mph 23.0 mph N/A   Overcast
10:55 PM 48.2 °F - 48.2 °F 100% 29.72 in 5.0 mi North 16.1 mph 26.5 mph 0.21 in   Overcast
11:15 PM 48.2 °F - 48.2 °F 100% 29.73 in 3.0 mi North 18.4 mph 26.5 mph N/A   Overcast
11:35 PM 48.2 °F - 46.4 °F 93% 29.75 in 3.0 mi North 18.4 mph - N/A   Light Drizzle
11:55 PM 46.4 °F 38.7 °F 46.4 °F 100% 29.73 in 6.0 mi North 20.7 mph 28.8 mph N/A   Overcast